Regional Weather Roundup
Issued by NWS

Home | Current Version | Previous Version | Text Only | Print | Product List | Glossary Off
Versions: 1 2 3 4 5 6 7 8 9 10 11 12 13 14 15 16 17 18 19 20 21 22 23 24 25 26 27 28 29 30 31 32 33 34 35 36 37 38 39 40 41 42 43 44 45 46 47 48 49 50

868
ASUS45 KBOI 171310
RWRID

IDAHO REGIONAL WEATHER ROUNDUP
NATIONAL WEATHER SERVICE BOISE ID
700 AM MDT THU AUG 17 2017

NOTE: "FAIR" INDICATES FEW OR NO CLOUDS BELOW 12000 FEET
WITH NO SIGNIFICANT WEATHER AND/OR OBSTRUCTIONS TO VISIBILITY

IDZ012-014-171400-
SOUTHWEST IDAHO


CITY           SKY/WX    TMP DP  RH WIND       PRES   REMARKS
BOISE          CLEAR     59  38  45 SE6       30.05R
CALDWELL       CLEAR     55  48  77 CALM      30.05R
MOUNTAIN HOME  CLEAR     56  40  55 NW5       30.05R
$$

IDZ016-017-171400-
SOUTHCENTRAL IDAHO


CITY           SKY/WX    TMP DP  RH WIND       PRES   REMARKS
BURLEY         CLEAR     50  42  74 SW7       30.10R
JEROME         CLEAR     58  41  53 S6        30.10R
TWIN FALLS     CLEAR     57  38  48 S13       30.11R
$$

IDZ019>023-171400-
SOUTHEAST IDAHO


CITY           SKY/WX    TMP DP  RH WIND       PRES   REMARKS
IDAHO FALLS    CLEAR     53  41  63 SW8       30.11R
POCATELLO      CLEAR     56  35  45 S6        30.12R
REXBURG        CLEAR     50  41  71 CALM      30.11R
$$

IDZ006-010-011-018-031-032-171400-
CENTRAL IDAHO MOUNTAINS


CITY           SKY/WX    TMP DP  RH WIND       PRES   REMARKS
MCCALL         CLEAR     46  36  68 CALM      30.14R
HAILEY         CLEAR     52  39  62 W12       30.16R
STANLEY          N/A     36  31  82 CALM      30.25R
SALMON         CLEAR     47  37  68 CALM      30.13R
CHALLIS        CLEAR     50  37  61 CALM      30.16R
$$

IDZ002-004-006-007-026-171400-
NORTHERN IDAHO


CITY           SKY/WX    TMP DP  RH WIND       PRES   REMARKS
LEWISTON       CLEAR     61  42  49 SE5       30.02R
LOWELL           N/A     54  46  74 CALM      30.09R
COEUR D`ALENE  CLEAR     54  46  74 SW6       30.04R
MULLAN PASS    CLEAR     54  36  50 SW7       30.17R
$$




USA.gov is the U.S. government's official web portal to all federal, state and local government web resources and services.